Location: Honolulu
(21.3069°N, 157.8583°W)
Time: 18:34:30
(UTC-10:00)

Tiangong - Visible Passes

Search period start: 15 May 2026 00:00
Search period end: 25 May 2026 00:00
Orbit: 379 x 384 km, 41.5° (Epoch: 13 May)

Date Brightness Start Highest point End Pass type
(mag) Time Alt. Az. Time Alt. Az. Time Alt. Az.
15 May 0.9 04:38:23 10° N 04:40:20 15° NNE 04:42:16 10° ENE visible
16 May -1.8 05:13:18 10° NW 05:16:27 70° NE 05:19:35 10° ESE visible
16 May -1.6 20:04:05 10° SSW 20:06:59 37° SE 20:07:37 33° ESE visible
17 May -0.1 04:13:30 14° NNW 04:15:37 28° NE 04:18:24 10° E visible
17 May -0.4 20:40:01 10° W 20:42:52 32° NW 20:44:15 22° NNE visible
18 May -1.9 04:49:49 22° WNW 04:51:31 45° SW 04:54:32 10° SSE visible
18 May -2.1 19:38:55 10° SW 19:42:01 84° NW 19:45:09 10° NE visible
19 May 0.9 20:15:53 10° WNW 20:18:01 17° NNW 20:20:09 10° NNE visible
